Regional Weather Roundup
Issued by NWS Columbia, SC

Home | Current Version | Previous Version | Text Only | Print | Product List | Glossary On
Versions: 1 2 3 4 5 6 7 8 9 10 11 12 13 14 15 16 17 18 19 20 21 22 23 24 25 26 27 28 29 30 31 32 33 34 35 36 37 38 39 40 41 42 43 44 45 46 47 48 49 50
000
ASUS42 KCAE 311610
RWRCAE
REGIONAL WEATHER ROUNDUP
NATIONAL WEATHER SERVICE COLUMBIA SC
1200 PM EDT MON AUG 31 2015

NOTE: "FAIR" INDICATES FEW OR NO CLOUDS BELOW 12,000 FEET WITH NO
SIGNIFICANT WEATHER AND/OR OBSTRUCTIONS TO VISIBILITY.

NOT ALL STATIONS ARE QUALITY CONTROLLED BY THE NATIONAL
WEATHER SERVICE. USE DATA WITH CAUTION...ESPECIALLY
DEWPOINT OBSERVATIONS.

SCZ001>056-GAZ040-063>065-077-311700-
...UPSTATE SOUTH CAROLINA...

CITY           SKY/WX    TMP DP  RH WIND       PRES   REMARKS
ANDERSON       SUNNY     79  64  60 E5        30.14F
LIBERTY        SUNNY     79  64  60 SE3       30.14F
SPARTANBURG    SUNNY     79  63  57 NE3       30.13F
CLEMSON        SUNNY     79  63  57 E5        30.16S
GREENVILLE     SUNNY     79  63  57 E3        30.16S
GREENWOOD      MOSUNNY   78  67  68 N6        30.15F
GREER          SUNNY     78  63  59 NE5       30.14S
ROCK HILL      MOSUNNY   80  66  62 E5        30.14F
CHESTER        MOSUNNY   81  64  57 NE6       30.14S
LAURENS        SUNNY     77  72  83 E3        30.14F


...CENTRAL SOUTH CAROLINA...

CITY           SKY/WX    TMP DP  RH WIND       PRES   REMARKS
COLUMBIA APT   CLOUDY    79  68  69 VRB3      30.11F
COLUMBIA OWENS PTSUNNY   79  68  69 VRB3      30.12F
DARLINGTON     CLOUDY    75  68  78 N7        30.12F
FLORENCE       PTSUNNY   80  71  74 N9        30.09F
MCENTIRE ANGB  PTSUNNY   78  70  75 NW6       30.11F
ORANGEBURG     CLOUDY    77  69  76 N7        30.11S
SUMTER SHAW    CLOUDY    75  69  80 N9        30.09S
NEWBERRY       PTSUNNY   77  68  73 NE6       30.16F
AIKEN          CLOUDY    72  68  88 N8        30.16S
BARNWELL       CLOUDY    77  72  83 NE7       30.12S
MANNING        PTSUNNY   77  70  78 NE6       30.09S
CAMDEN         PTSUNNY   77  70  78 N7        30.12F
LANCASTER      MOSUNNY   81  70  69 E8        30.13S
WINNSBORO      PTSUNNY   75  68  78 NW6       30.13S


...EASTERN AND COASTAL SOUTH CAROLINA...

CITY           SKY/WX    TMP DP  RH WIND       PRES   REMARKS
MYRTLE BEACH   PTSUNNY   75  70  83 S7        30.10F
N MYRTLE BCH   CLOUDY    75  73  93 CALM      30.09S
CONWAY         CLOUDY    72  72 100 N5        30.09S FOG
MARION         FAIR      73  70  88 CALM      30.10S FOG
HARTSVILLE     CLOUDY    72  68  88 N5        30.11F
FLORENCE       PTSUNNY   80  71  74 N9        30.09F
DARLINGTON     CLOUDY    75  68  78 N7        30.12F
CHARLESTON APT PTSUNNY   80  74  81 NE8       30.07R
MOUNT PLEASANT LGT RAIN  79  75  89 NW5       30.07R
WALTERBORO     CLOUDY    81  73  78 N6        30.09S
BEAUFORT       PTSUNNY   81  74  79 N7        30.08R


...EASTERN GEORGIA...

CITY           SKY/WX    TMP DP  RH WIND       PRES   REMARKS
AUGUSTA BUSH F CLOUDY    74  70  87 N9        30.12R
AUGUSTA DANIEL CLOUDY    78  69  73 N6        30.14R
THOMSON        CLOUDY    73  72  98 N5        30.19R
WASHINGTON     CLOUDY    75  75 100 CALM      30.15S
SYLVANIA       CLOUDY    78  75  91 NE5       30.11S
STATESBORO     CLOUDY    77  77 100 N6        30.10S
SAVANNAH       CLOUDY    77  73  87 NW7       30.09S


...SOUTHERN NORTH CAROLINA...

CITY           SKY/WX    TMP DP  RH WIND       PRES   REMARKS
CHARLOTTE      MOSUNNY   81  66  60 CALM      30.14S
MONROE         MOSUNNY   76  68  76 NE5       30.14S
WADESBORO      CLOUDY    74  69  82 NE6       30.13S
ROCKINGHAM     CLOUDY    71  68  90 N5        30.12F
RUTHERFORDTON  SUNNY     80  62  53 E5        30.16F
ASHEVILLE      SUNNY     76  62  62 N8        30.21S

$$



USA.gov is the U.S. government's official web portal to all federal, state and local government web resources and services.